TKJ3167 LTCO-LTFJ

Flight info

Callsign TKJ3167
Flight time N/A
Altitude 36000
Route INBAT UW94 ERZ UL615 TIMOP UT97 ILHAN UT79 NAMAN
Aircraft B738/M-SDE2E3FGHIRWXY/LB1

Departure

Time 2026-04-20 21:15
Airport Ağrı Airport (LTCO)

Arrival

Time N/A
Airport Istanbul Sabiha Gökçen International Airport (LTFJ)
Time Latitude Longitude Altitude Speed Heading
2026-04-20 20:45 39.65491 43.02212 5461 ft 0 kts 254°
2026-04-20 21:02 39.65493 43.02223 5460 ft 3 kts 254°
2026-04-20 21:02 39.65499 43.02246 5452 ft 3 kts 254°
2026-04-20 21:03 39.65501 43.02271 5455 ft 3 kts 284°
2026-04-20 21:03 39.65492 43.02294 5457 ft 3 kts 316°
2026-04-20 21:03 39.65476 43.02307 5453 ft 3 kts 347°
2026-04-20 21:03 39.65474 43.02308 5460 ft 0 kts 351°
2026-04-20 21:08 39.65478 43.02307 5454 ft 2 kts 351°
2026-04-20 21:08 39.65500 43.02306 5459 ft 5 kts 10°
2026-04-20 21:08 39.65521 43.02356 5461 ft 9 kts 73°
2026-04-20 21:09 39.65536 43.02435 5451 ft 4 kts 76°
2026-04-20 21:09 39.65541 43.02458 5456 ft 2 kts 76°
2026-04-20 21:09 39.65545 43.02480 5459 ft 7 kts 76°
2026-04-20 21:09 39.65551 43.02510 5453 ft 2 kts 76°
2026-04-20 21:10 39.65555 43.02528 5455 ft 3 kts 76°
2026-04-20 21:10 39.65555 43.02567 5458 ft 7 kts 107°
2026-04-20 21:10 39.65506 43.02605 5457 ft 11 kts 163°
2026-04-20 21:10 39.65416 43.02638 5452 ft 16 kts 164°
2026-04-20 21:11 39.65299 43.02679 5455 ft 18 kts 164°
2026-04-20 21:11 39.65170 43.02727 5456 ft 20 kts 163°
2026-04-20 21:11 39.65024 43.02782 5466 ft 23 kts 167°
2026-04-20 21:11 39.64864 43.02837 5467 ft 24 kts 163°
2026-04-20 21:12 39.64711 43.02891 5462 ft 17 kts 165°
2026-04-20 21:12 39.64630 43.02895 5470 ft 9 kts 198°
2026-04-20 21:12 39.64574 43.02874 5461 ft 7 kts 173°
2026-04-20 21:12 39.64552 43.02916 5464 ft 5 kts 83°
2026-04-20 21:13 39.64565 43.02935 5472 ft 1 kts 30°
2026-04-20 21:13 39.64567 43.02936 5472 ft 0 kts 26°
2026-04-20 21:13 39.64577 43.02939 5470 ft 4 kts
2026-04-20 21:13 39.64617 43.02927 5470 ft 9 kts 344°
2026-04-20 21:14 39.64712 43.02892 5462 ft 31 kts 344°
2026-04-20 21:14 39.65157 43.02731 5465 ft 101 kts 344°
2026-04-20 21:14 39.66037 43.02414 5451 ft 160 kts 344°
2026-04-20 21:14 39.67231 43.01978 5731 ft 184 kts 344°
2026-04-20 21:15 39.68474 43.01530 6608 ft 189 kts 347°
2026-04-20 21:15 39.69805 43.01137 7132 ft 207 kts 348°
2026-04-20 21:15 39.71289 43.00759 7384 ft 225 kts 349°
2026-04-20 21:15 39.72852 43.00376 7876 ft 231 kts 349°
2026-04-20 21:16 39.74438 42.99981 8514 ft 232 kts 348°
2026-04-20 21:16 39.76028 42.99576 9152 ft 234 kts 348°
2026-04-20 21:16 39.77635 42.99158 9744 ft 237 kts 348°
2026-04-20 21:16 39.79258 42.98731 10293 ft 239 kts 348°
2026-04-20 21:17 39.80896 42.98296 10840 ft 242 kts 348°
2026-04-20 21:17 39.82555 42.97854 11378 ft 245 kts 347°
2026-04-20 21:17 39.84232 42.97410 11925 ft 248 kts 349°
2026-04-20 21:17 39.85997 42.97509 12099 ft 267 kts 20°
2026-04-20 21:18 39.87525 42.98903 12518 ft 273 kts 52°
2026-04-20 21:18 39.88347 43.01118 13116 ft 275 kts 83°
2026-04-20 21:18 39.88154 43.03573 13833 ft 270 kts 116°
2026-04-20 21:18 39.87049 43.05511 14452 ft 268 kts 140°
2026-04-20 21:19 39.85439 43.06689 14997 ft 268 kts 169°
2026-04-20 21:19 39.83591 43.06708 15621 ft 267 kts 188°
2026-04-20 21:19 39.81749 43.06327 16254 ft 269 kts 190°
2026-04-20 21:20 39.77981 43.05473 17186 ft 288 kts 190°
2026-04-20 21:20 39.75937 43.05029 17349 ft 308 kts 189°
2026-04-20 21:20 39.74502 43.04727 17450 ft 321 kts 189°
2026-04-20 21:20 39.71431 43.04088 17660 ft 346 kts 191°
2026-04-20 21:21 39.69128 43.02977 17777 ft 365 kts 212°
2026-04-20 21:21 39.67236 43.00729 18144 ft 376 kts 233°
2026-04-20 21:21 39.66126 42.97647 18655 ft 383 kts 256°
2026-04-20 21:21 39.66031 42.94190 19251 ft 388 kts 277°
2026-04-20 21:22 39.66603 42.90759 19849 ft 391 kts 282°
2026-04-20 21:22 39.67265 42.87321 20329 ft 395 kts 282°
2026-04-20 21:22 39.67940 42.83846 20827 ft 399 kts 282°
2026-04-20 21:22 39.68599 42.80339 21352 ft 401 kts 281°
2026-04-20 21:23 39.69232 42.76847 21882 ft 404 kts 281°
2026-04-20 21:23 39.69865 42.73284 22409 ft 407 kts 281°
2026-04-20 21:23 39.70498 42.69690 22907 ft 410 kts 281°
2026-04-20 21:23 39.71129 42.66072 23399 ft 413 kts 280°
2026-04-20 21:24 39.71763 42.62422 23814 ft 415 kts 280°
2026-04-20 21:24 39.72400 42.58757 24232 ft 417 kts 280°
2026-04-20 21:24 39.73041 42.55070 24635 ft 419 kts 280°
2026-04-20 21:24 39.73688 42.51365 25042 ft 422 kts 281°
2026-04-20 21:25 39.74339 42.47639 25427 ft 424 kts 281°
2026-04-20 21:25 39.74993 42.43887 25818 ft 427 kts 281°
2026-04-20 21:25 39.75650 42.40115 26186 ft 429 kts 280°
2026-04-20 21:25 39.76309 42.36325 26546 ft 431 kts 280°
2026-04-20 21:26 39.76969 42.32517 26908 ft 433 kts 280°
2026-04-20 21:26 39.77631 42.28688 27257 ft 435 kts 280°
2026-04-20 21:26 39.78080 42.26083 27497 ft 437 kts 280°
2026-04-20 21:26 39.78961 42.20969 27953 ft 440 kts 280°
2026-04-20 21:27 39.79403 42.18396 28165 ft 441 kts 280°
2026-04-20 21:27 39.80072 42.14496 28502 ft 443 kts 280°
2026-04-20 21:27 39.80743 42.10574 28837 ft 445 kts 280°
2026-04-20 21:27 39.81415 42.06639 29186 ft 447 kts 280°
2026-04-20 21:28 39.82088 42.02689 29551 ft 447 kts 280°
2026-04-20 21:28 39.82760 41.98744 30029 ft 445 kts 280°
2026-04-20 21:28 39.83425 41.94825 30450 ft 442 kts 280°
2026-04-20 21:28 39.84085 41.90929 30851 ft 440 kts 280°
2026-04-20 21:29 39.84741 41.87046 31199 ft 439 kts 280°
2026-04-20 21:29 39.85395 41.83160 31537 ft 439 kts 280°
2026-04-20 21:29 39.86047 41.79287 31895 ft 438 kts 280°
2026-04-20 21:29 39.86696 41.75420 32253 ft 437 kts 280°
2026-04-20 21:30 39.87342 41.71561 32590 ft 436 kts 280°
2026-04-20 21:30 39.87984 41.67707 32898 ft 436 kts 280°
2026-04-20 21:30 39.88624 41.63855 33215 ft 435 kts 280°
2026-04-20 21:30 39.89262 41.60006 33535 ft 435 kts 280°
2026-04-20 21:31 39.89898 41.56158 33839 ft 434 kts 280°
2026-04-20 21:31 39.90532 41.52317 34121 ft 434 kts 280°
2026-04-20 21:31 39.91165 41.48474 34373 ft 433 kts 280°
2026-04-20 21:31 39.91795 41.44643 34599 ft 433 kts 280°
2026-04-20 21:32 39.92425 41.40803 34826 ft 433 kts 280°
2026-04-20 21:32 39.93051 41.36978 35072 ft 432 kts 280°
2026-04-20 21:32 39.93676 41.33150 35311 ft 431 kts 279°
2026-04-20 21:32 39.94299 41.29331 35520 ft 431 kts 279°
2026-04-20 21:33 39.94921 41.25510 35740 ft 431 kts 279°
2026-04-20 21:33 39.95521 41.21686 35934 ft 430 kts 277°
2026-04-20 21:33 39.95799 41.17803 35930 ft 431 kts 269°
2026-04-20 21:34 39.95767 41.10005 35945 ft 429 kts 268°
2026-04-20 21:34 39.95707 41.02266 35937 ft 426 kts 268°
2026-04-20 21:35 39.95680 40.94572 35936 ft 423 kts 268°
2026-04-20 21:35 39.95664 40.86915 35936 ft 422 kts 268°
2026-04-20 21:36 39.95645 40.79270 35933 ft 422 kts 268°
2026-04-20 21:36 39.95620 40.71623 35942 ft 423 kts 268°
2026-04-20 21:37 39.95590 40.63950 35947 ft 424 kts 268°
2026-04-20 21:37 39.95558 40.56241 35952 ft 426 kts 268°
2026-04-20 21:38 39.95521 40.48495 35952 ft 429 kts 268°
2026-04-20 21:38 39.95480 40.40711 35951 ft 430 kts 268°
2026-04-20 21:39 39.95433 40.32900 35961 ft 432 kts 268°
2026-04-20 21:39 39.95381 40.25062 35961 ft 433 kts 268°
2026-04-20 21:40 39.95323 40.17219 35965 ft 433 kts 269°
2026-04-20 21:40 39.95260 40.09376 35962 ft 433 kts 269°
2026-04-20 21:41 39.95193 40.01546 35964 ft 432 kts 269°
2026-04-20 21:41 39.95126 39.94284 35968 ft 430 kts 269°
2026-04-20 21:42 39.95059 39.86965 35975 ft 429 kts 269°
2026-04-20 21:42 39.95001 39.79583 35971 ft 428 kts 269°
2026-04-20 21:43 39.94936 39.71893 35970 ft 426 kts 269°
2026-04-20 21:43 39.94864 39.64176 35965 ft 426 kts 269°
2026-04-20 21:44 39.94786 39.56472 35962 ft 425 kts 269°
2026-04-20 21:44 39.94686 39.48783 35964 ft 424 kts 269°
2026-04-20 21:45 39.94576 39.41100 35969 ft 424 kts 269°
2026-04-20 21:45 39.94464 39.33415 35968 ft 424 kts 269°
2026-04-20 21:46 39.94349 39.25732 35985 ft 424 kts 269°
2026-04-20 21:46 39.94228 39.18034 35984 ft 425 kts 269°
2026-04-20 21:47 39.94103 39.10330 35995 ft 426 kts 269°
2026-04-20 21:47 39.93964 39.02608 35993 ft 426 kts 268°
2026-04-20 21:48 39.93819 38.94881 36006 ft 427 kts 268°
2026-04-20 21:48 39.93641 38.87147 35998 ft 427 kts 266°
2026-04-20 21:49 39.93167 38.79427 36005 ft 427 kts 265°
2026-04-20 21:49 39.92612 38.71770 36005 ft 427 kts 265°
2026-04-20 21:50 39.92068 38.64023 36012 ft 426 kts 265°
2026-04-20 21:50 39.91547 38.56391 36007 ft 426 kts 265°
2026-04-20 21:51 39.91024 38.48722 36015 ft 425 kts 265°
2026-04-20 21:51 39.90498 38.41073 36008 ft 423 kts 265°
2026-04-20 21:52 39.89967 38.33447 36013 ft 422 kts 265°
2026-04-20 21:52 39.89433 38.25839 36015 ft 422 kts 265°
2026-04-20 21:53 39.88895 38.18241 36018 ft 421 kts 265°
2026-04-20 21:53 39.88352 38.10655 36023 ft 420 kts 265°
2026-04-20 21:54 39.87807 38.03085 36027 ft 420 kts 265°
2026-04-20 21:54 39.87256 37.95529 36034 ft 419 kts 265°
2026-04-20 21:55 39.86699 37.87979 36036 ft 419 kts 265°
2026-04-20 21:55 39.86139 37.80431 36044 ft 419 kts 265°
2026-04-20 21:56 39.85575 37.72888 36047 ft 419 kts 265°
2026-04-20 21:56 39.85010 37.65396 36047 ft 419 kts 265°
2026-04-20 21:57 39.84436 37.57849 36049 ft 419 kts 265°
2026-04-20 21:57 39.83857 37.50302 36044 ft 419 kts 265°
2026-04-20 21:58 39.83273 37.42753 36046 ft 419 kts 265°
2026-04-20 21:58 39.82672 37.35204 36048 ft 420 kts 264°
2026-04-20 21:59 39.82062 37.27655 36040 ft 420 kts 264°
2026-04-20 21:59 39.81449 37.20110 36035 ft 419 kts 264°
2026-04-20 22:00 39.80832 37.12567 36028 ft 419 kts 264°
2026-04-20 22:00 39.80211 37.05029 36025 ft 419 kts 264°
2026-04-20 22:01 39.79587 36.97497 36020 ft 419 kts 264°
2026-04-20 22:01 39.79059 36.89966 36015 ft 418 kts 270°
2026-04-20 22:02 39.79746 36.82486 36028 ft 418 kts 280°
2026-04-20 22:02 39.80817 36.75059 36033 ft 418 kts 280°
2026-04-20 22:03 39.81860 36.67623 36034 ft 418 kts 279°
2026-04-20 22:03 39.82874 36.60181 36046 ft 418 kts 279°
2026-04-20 22:04 39.83876 36.52736 36054 ft 418 kts 279°
2026-04-20 22:04 39.84869 36.45332 36055 ft 418 kts 279°
2026-04-20 22:05 39.85864 36.37881 36067 ft 418 kts 279°
2026-04-20 22:05 39.86934 36.30438 36064 ft 418 kts 281°
2026-04-20 22:06 39.88043 36.23000 36060 ft 419 kts 279°
2026-04-20 22:06 39.88702 36.18002 36058 ft 419 kts 279°